This demonstration page uses our WeatherBlox Daily Observations layout. Learn more.

Left ArrowRight Arrow

34.74481, -87.66753

Hourly Observations for April 6, 2017

Temp ( °F °C ) Dew Point ( °F °C ) Humidity (%) Winds ( mph kmh ) Pressure ( in mb ) Visibility ( mi km ) Precip ( " mm )
12:19 am 00:19 Cloudy 51 10.6 41 5 69 69 W 26 43 29.83 1010 10 16 0.00 0.00
12:27 am 00:27 Cloudy 51 10.6 39 3.9 64 64 WNW 18 30 29.83 1010 10 16 0.00 0.00
12:53 am 00:53 Cloudy with Light Rain 50 10 38 3.3 63 63 W 25 41 29.79 1009 10 16 0.00 0.03
1:53 am 01:53 Cloudy 51 10.6 36 2.2 56 56 W 22 35 29.79 1009 10 16 0.00 0.03
2:53 am 02:53 Cloudy 51 10.6 34 1.1 52 52 WNW 25 41 29.78 1008 10 16 0.00 0.00
3:53 am 03:53 Cloudy 50 10 38 3.3 63 63 W 18 30 29.79 1009 10 16 0.00 0.00
4:53 am 04:53 Cloudy 48 8.9 39 3.9 71 71 W 16 26 29.82 1010 10 16 0.00 0.00
5:53 am 05:53 Cloudy 48 8.9 34 1.1 58 58 WNW 21 33 29.85 1011 10 16 0.00 0.00
6:53 am 06:53 Cloudy 48 8.9 35 1.7 61 61 WNW 23 37 29.88 1012 10 16 0.00 0.00
7:53 am 07:53 Cloudy 48 8.9 35 1.7 61 61 WNW 15 24 29.91 1013 10 16 0.00 0.00
8:53 am 08:53 Cloudy 49 9.4 35 1.7 59 59 WNW 28 44 29.93 1014 10 16 0.00 0.00
9:53 am 09:53 Cloudy 49 9.4 36 2.2 61 61 WNW 21 33 29.97 1015 10 16 0.00 0.00
10:53 am 10:53 Cloudy 53 11.7 37 2.8 55 55 NW 23 37 29.98 1015 10 16 0.00 0.00
11:53 am 11:53 Cloudy 53 11.7 35 1.7 51 51 NW 20 31 29.99 1016 10 16 0.00 0.00
12:53 pm 12:53 Cloudy 56 13.3 35 1.7 46 46 NW 16 26 30.00 1016 10 16 0.00 0.00
1:53 pm 13:53 Cloudy 57 13.9 36 2.2 45 45 WNW 18 30 30.00 1016 10 16 0.00 0.00
2:53 pm 14:53 Mostly Cloudy 59 15 34 1.1 39 39 NW 18 30 29.99 1016 10 16 0.00 0.00
3:53 pm 15:53 Partly Cloudy 59 15 31 -0.6 35 35 NW 17 28 29.99 1016 10 16 0.00 0.00
4:53 pm 16:53 Cloudy 61 16.1 33 0.6 35 35 WNW 24 39 29.99 1016 10 16 0.00 0.00
5:53 pm 17:53 Mostly Cloudy 59 15 32 0 36 36 NW 10 17 29.99 1016 10 16 0.00 0.00
6:53 pm 18:53 Mostly Cloudy 59 15 31 -0.6 35 35 NW 10 17 29.99 1016 10 16 0.00 0.00
7:53 pm 19:53 Cloudy 58 14.4 31 -0.6 36 36 WNW 17 28 30.01 1016 10 16 0.00 0.00
8:53 pm 20:53 Mostly Cloudy 55 12.8 33 0.6 44 44 NW 6 9 30.04 1017 10 16 0.00 0.03
9:53 pm 21:53 Mostly Clear 49 9.4 36 2.2 61 61 W 7 11 30.05 1018 10 16 0.00 0.00
10:53 pm 22:53 Clear 47 8.3 36 2.2 66 66 WNW 7 11 30.06 1018 10 16 0.00 0.00
11:53 pm 23:53 Clear 49 9.4 35 1.7 59 59 NW 5 7 30.08 1019 10 16 0.00 0.00

Powered by AerisWeather